THOR ABLESTAR DEB, 38521

Orbit data source: Space-Track

THOR ABLESTAR DEB, 38521 is space debris in LEO originally from a launch on Sat, 28 Sep 1963 UTC launched from the Air Force Western Test Range (AFWTR). Debris objects in space refer to the collection of defunct objects orbiting the Earth. Examples of debris include non-operational satellites, rocket bodies, and fragments generated from explosions, collisions, or faulty payload assembly.

Loading next visibility...
THOR ABLESTAR DEB details
Identifier
38521, 1963-038Q
Orbit
LEO
Last TLE update4 days ago
Origin
Flag of USUSN NAVAIR (US)
ManufacturerUnknown
MissionSpacecraft
Bus & MotorUnknown
MassUnknown
Launch date (UTC)
1963-09-28 (61 years ago)
Launch vehicleUnknown
Launch site
Air Force Western Test Range (AFWTR)
Object type
Payload
Rocket body
Debris
Shape & HBRUnknown
Radar Cross SectionSmall (<0.1 m²)

Expand to show TLE details & history

TLE from 4 days ago
0 THOR ABLESTAR DEB
1 38521U 63038Q   24352.25127382  .00000146  00000-0  22882-3 0  9991
2 38521  89.9832 334.4281 0042495 112.6849 310.7355 13.45307971561961
Epoch: 2024-12-17T06:01Z
Definitive object data (Epoch: 2024-12-17T06:01:50.058Z)
Latitude63.13543°
Longitude157.64°
Altitude1,079.872 km
Speed7.328 km/s
True Right ascension22h 17m 50s
True Declination63° 00' 09"
Sunlit
Object was in daylight at TLE epoch
Visualization TLE readout
Latitude-54.40298°
Longitude157.57632°
Altitude1,139.341 km
Speed7.268 km/s
Apparent Right ascension00h 09m 08s
Apparent Declination-50° 40' 26"
Sunlit
Object is in daylight
Visualization observer readout
Local Sidereal Time13:48:06
Azimuth130.178° SE
Elevation-69.684°
Doppler factor1
Orbital elements
Apogee altitude1,118.35 km
Perigee altitude1,054.907 km
Semi-major axis7,464.765 km
Eccentricity0.0042495
Inclination89.9832°
RAAN334.4281°
Arg. of periapsis112.6849°
True anomaly310.36524°
Mean anomaly310.7355°
Eccentric anomaly310.5505°
Mean motion3.36526 °/min
BSTAR0.00022882
Orbital period106.98 mins
Loading maneuver chart data...

THOR ABLESTAR DEB Visibility forecast

Observer location: undefined°, undefined

Span
Click to sort rows by Start time (UTC) header in descending order
Start Az.
Max El. time (UTC)
Max El. Az.
Max El.
End time (UTC)
End Az.
11 mins2024-12-21 22:16:55.944Z142.232° SSE2024-12-21 22:22:55.944Z75.265° E31.032°2024-12-21 22:27:55.944Z17.718° NNE
10 mins2024-12-22 00:04:55.944Z218.607° SW2024-12-22 00:09:55.944Z282.419° WNW29.408°2024-12-22 00:14:55.944Z337.119° NNW
5 mins2024-12-22 09:31:55.944Z54.914° ENE2024-12-22 09:33:55.944Z75.17° E15.292°2024-12-22 09:36:55.944Z104.947° ESE
11 mins2024-12-22 11:16:55.944Z357.528° N2024-12-22 11:21:55.944Z247.239° WSW44.103°2024-12-22 11:27:55.944Z190.344° SSW
|